Location: Goettingen
(51.5300°N, 9.9433°E)
Time: 21:56:57
(UTC+01:00)

ISS - Pass Details

Date: 10 November 2019
Orbit: 412 x 421 km, 51.6° (Epoch: 15 November)

Event Time Altitude Azimuth Distance (km) Brightness Sun altitude
Exits shadow 06:33:35 - 252° (WSW) 1,639 -1.3 -8.8°
Reaches altitude 10° 06:34:26 10° 240° (WSW) 1,503 -1.3 -8.7°
Maximum altitude 06:35:22 11° 223° (SW) 1,447 -1.3 -8.6°
Drops below altitude 10° 06:36:18 10° 207° (SSW) 1,499 -1.1 -8.4°
Sets 06:39:45 0° 169° (S) 2,354 0.5 -7.9°
